| time (UTC) | temp C | wind direction | speed KPH | gust KPH | rain 1hr cm | rain 24hr cm | rain mn cm | humidity % | barometer mb |
| 20260504033043 | 6 | 84 | 0.0 | 0.0 | 0.00 | 0.00 | 0.00 | 76 | 1018.2 |
| 20260504031601 | 6 | 84 | 0.0 | 0.0 | 0.00 | 0.00 | 0.00 | 76 | 1018.2 |
| 20260504030042 | 6 | 84 | 0.0 | 0.0 | 0.00 | 0.00 | 0.00 | 75 | 1018.2 |
| 20260504024543 | 7 | 83 | 0.0 | 0.0 | 0.00 | 0.00 | 0.00 | 75 | 1018.2 |
| 20260504023039 | 7 | 84 | 0.0 | 0.0 | 0.00 | 0.00 | 0.00 | 75 | 1018.0 |
| 20260504021534 | 7 | 84 | 0.0 | 0.0 | 0.00 | 0.00 | 0.00 | 73 | 1017.9 |
| 20260504020038 | 8 | 84 | 0.0 | 0.0 | 0.00 | 0.00 | 0.00 | 72 | 1017.9 |
| 20260504014534 | 8 | 83 | 0.0 | 0.0 | 0.00 | 0.00 | 0.00 | 70 | 1017.6 |
| 20260504013033 | 9 | 84 | 0.0 | 0.0 | 0.00 | 0.00 | 0.00 | 69 | 1017.6 |
| 20260504011538 | 9 | 84 | 0.0 | 0.0 | 0.00 | 0.00 | 0.00 | 67 | 1017.5 |
| 20260504010043 | 10 | 82 | 0.0 | 0.0 | 0.00 | 0.00 | 0.00 | 66 | 1017.3 |
| 20260504004537 | 11 | 82 | 0.0 | 0.0 | 0.00 | 0.00 | 0.00 | 63 | 1017.2 |
| 20260504003043 | 11 | 82 | 0.0 | 0.0 | 0.00 | 0.00 | 0.00 | 60 | 1017.1 |
| 20260504001535 | 12 | 82 | 0.0 | 1.6 | 0.00 | 0.00 | 0.00 | 57 | 1017.0 |
| 20260504000034 | 13 | 170 | 0.0 | 1.6 | 0.00 | 0.00 | 0.00 | 54 | 1016.9 |
| 20260503234534 | 13 | 347 | 0.0 | 1.6 | 0.00 | 0.00 | 0.00 | 52 | 1016.8 |
| 20260503233033 | 14 | 290 | 0.0 | 3.2 | 0.00 | 0.00 | 0.00 | 51 | 1016.8 |
| 20260503231545 | 14 | 314 | 0.0 | 1.6 | 0.00 | 0.00 | 0.00 | 50 | 1016.8 |
| 20260503230033 | 15 | 300 | 0.0 | 1.6 | 0.00 | 0.00 | 0.00 | 49 | 1016.8 |
| 20260503224531 | 15 | 232 | 0.0 | 4.8 | 0.00 | 0.00 | 0.00 | 48 | 1016.8 |
| 20260503223033 | 15 | 285 | 1.6 | 8.0 | 0.00 | 0.00 | 0.00 | 48 | 1016.9 |
| 20260503221536 | 15 | 294 | 1.6 | 8.0 | 0.00 | 0.00 | 0.00 | 48 | 1016.9 |
| 20260503220038 | 15 | 291 | 0.0 | 8.0 | 0.00 | 0.00 | 0.00 | 49 | 1017.0 |
| 20260503214542 | 15 | 291 | 1.6 | 9.7 | 0.00 | 0.00 | 0.00 | 49 | 1017.0 |
| 20260503213052 | 15 | 291 | 0.0 | 6.4 | 0.00 | 0.00 | 0.00 | 48 | 1017.2 |
| 20260503211538 | 15 | 279 | 1.6 | 8.0 | 0.00 | 0.00 | 0.00 | 49 | 1017.3 |
| 20260503210032 | 15 | 269 | 1.6 | 6.4 | 0.00 | 0.00 | 0.00 | 49 | 1017.4 |
| 20260503204549 | 15 | 316 | 3.2 | 6.4 | 0.00 | 0.00 | 0.00 | 49 | 1017.5 |
| 20260503203033 | 15 | 338 | 1.6 | 11.3 | 0.00 | 0.00 | 0.00 | 48 | 1017.8 |
| 20260503201527 | 15 | 307 | 1.6 | 4.8 | 0.00 | 0.00 | 0.00 | 47 | 1018.0 |
| 20260503200029 | 15 | 300 | 0.0 | 14.5 | 0.00 | 0.00 | 0.00 | 47 | 1018.2 |
| 20260503194528 | 15 | 122 | 1.6 | 11.3 | 0.00 | 0.00 | 0.00 | 47 | 1018.4 |
| 20260503193026 | 15 | 297 | 1.6 | 11.3 | 0.00 | 0.00 | 0.00 | 47 | 1018.6 |
| 20260503191524 | 15 | 301 | 1.6 | 4.8 | 0.00 | 0.00 | 0.00 | 46 | 1018.8 |
| 20260503190023 | 15 | 37 | 1.6 | 11.3 | 0.00 | 0.00 | 0.00 | 45 | 1018.8 |
| 20260503184527 | 15 | 267 | 0.0 | 8.0 | 0.00 | 0.00 | 0.00 | 45 | 1018.8 |
| 20260503183026 | 15 | 301 | 0.0 | 14.5 | 0.00 | 0.00 | 0.00 | 44 | 1019.0 |
| 20260503181522 | 15 | 299 | 0.0 | 3.2 | 0.00 | 0.00 | 0.00 | 41 | 1019.2 |
| 20260503180028 | 15 | 224 | 0.0 | 8.0 | 0.00 | 0.00 | 0.00 | 42 | 1019.3 |
| 20260503174522 | 15 | 208 | 0.0 | 3.2 | 0.00 | 0.00 | 0.00 | 44 | 1019.4 |
| 20260503173019 | 15 | 319 | 0.0 | 9.7 | 0.00 | 0.00 | 0.00 | 46 | 1019.5 |
| 20260503171520 | 14 | 287 | 0.0 | 8.0 | 0.00 | 0.00 | 0.00 | 44 | 1019.8 |
| 20260503081600 | 1 | 158 | 0.0 | 0.0 | 0.00 | 0.00 | 0.00 | 67 | 1017.7 |
| 20260503071607 | 1 | 158 | 0.0 | 0.0 | 0.00 | 0.00 | 0.00 | 69 | 1017.1 |
| 20260503070105 | 2 | 158 | 0.0 | 0.0 | 0.00 | 0.00 | 0.00 | 69 | 1016.9 |
| 20260503054554 | 2 | 159 | 0.0 | 0.0 | 0.00 | 0.00 | 0.00 | 77 | 1016.9 |
| 20260503053041 | 2 | 158 | 0.0 | 0.0 | 0.00 | 0.00 | 0.00 | 76 | 1017.0 |
| 20260503051547 | 2 | 158 | 0.0 | 0.0 | 0.00 | 0.00 | 0.00 | 76 | 1016.9 |
| 20260503050038 | 2 | 158 | 0.0 | 0.0 | 0.00 | 0.00 | 0.00 | 76 | 1016.9 |
| 20260503044535 | 2 | 158 | 0.0 | 0.0 | 0.00 | 0.00 | 0.00 | 77 | 1016.8 |
| 20260503043032 | 3 | 158 | 0.0 | 0.0 | 0.00 | 0.00 | 0.00 | 77 | 1016.6 |
| 20260503041533 | 3 | 158 | 0.0 | 0.0 | 0.00 | 0.00 | 0.00 | 76 | 1016.5 |
| 20260503040027 | 4 | 158 | 0.0 | 0.0 | 0.00 | 0.00 | 0.00 | 75 | 1016.4 |
| 20260503034525 | 4 | 158 | 0.0 | 1.6 | 0.00 | 0.00 | 0.00 | 73 | 1016.3 |